Regional Weather Roundup
Issued by NWS Sterling, VA

Home | Current Version | Previous Version | Text Only | Print | Product List | Glossary Off
Versions: 1 2 3 4 5 6 7 8 9 10 11 12 13 14 15 16 17 18 19 20 21 22 23 24 25 26 27 28 29 30 31 32 33 34 35 36 37 38 39 40 41 42 43 44 45 46 47 48 49 50

665
ASUS41 KLWX 181710
RWRLWX

REGIONAL WEATHER ROUNDUP
NATIONAL WEATHER SERVICE BALTIMORE MD/WASHINGTON DC
1200 PM EST SAT NOV 18 2017

Note: "FAIR" indicates few or no clouds below 12,000 feet
with no significant weather and/or obstructions to visibility.
 TC=TEMPERATURE CELSIUS

 * =Non NWS site. Station does not report precipitation (e.g. rain,
    snow, etc.), thunder, or fog.

DCZ001-MDZ009-015-VAZ040>042-051-053>054-181800-
WASHINGTON METRO

CITY           SKY/WX    TMP DP  RH WIND       PRES   REMARKS
WASHINGTON NAT CLOUDY    55  39  54 S13G21    29.76F
DULLES         PTSUNNY   55  38  52 S14       29.73F
ANDREWS AFB    MOSUNNY   55  36  49 S18G25    29.74F
FT BELVOIR     PTSUNNY   56  37  49 S13G18    29.74F
COLLEGE PARK*  PTSUNNY   53  35  51 S3        29.76F
LEESBURG*      CLOUDY    52  39  62 S10       29.74F
MANASSAS*      MOSUNNY   55  37  50 SW15G26   29.74F
GAITHERSBURG*  CLOUDY    53  36  52 SW10      29.73F

$$

MDZ006>007-011-014-181800-
BALTIMORE METRO

CITY           SKY/WX    TMP DP  RH WIND       PRES   REMARKS
BWI AIRPORT    CLOUDY    55  36  48 S10       29.75F
MD SCIENCE CTR   N/A     53  37  54 MISG      29.77F
MARTIN STATE   PTSUNNY   54  43  66 SE10      29.79F
FORT MEADE*    CLOUDY    54  36  50 SW13G20   29.79F

$$

MDZ012-015-019>023-181800-
MARYLAND EASTERN SHORE

CITY           SKY/WX    TMP DP  RH WIND       PRES   REMARKS
OCEAN CITY     CLOUDY    53  41  63 SW18G25   29.88F
SALISBURY      CLOUDY    55  39  54 S12G22    29.84F
CAMBRIDGE*     SUNNY     55  41  58 S17G25    29.82F
EASTON*        MOSUNNY   57  36  44 S14       29.84F

$$

MDZ017>025-181800-
SOUTHERN MARYLAND

CITY           SKY/WX    TMP DP  RH WIND       PRES   REMARKS
PATUXENT RIVER PTSUNNY   57  39  51 S12       29.80F
ST INIGOES     NOT AVBL
LEONARDTOWN*   MOSUNNY   55  36  47 S9G21     29.81F

$$

MDZ003>005-181800-
NORTH CENTRAL MARYLAND

CITY           SKY/WX    TMP DP  RH WIND       PRES   REMARKS
FREDERICK*     CLOUDY    43  43 100 VRB5      29.79F
HAGERSTOWN APT RAIN      38  37  97 N3        29.74F VSB 1
WESTMINSTER*   DRIZZLE   43  39  87 SE3       29.75F

$$

MDZ501>502-181800-
WESTERN MARYLAND

CITY           SKY/WX    TMP DP  RH WIND       PRES   REMARKS
OAKLAND*       CLOUDY    43  43 100 S12       29.59F
CUMBERLAND*    CLOUDY    36  36 100 CALM      29.75F

$$

VAZ025>031-181800-
SHENANDOAH VALLEY

CITY           SKY/WX    TMP DP  RH WIND       PRES   REMARKS
WINCHESTER*    DRIZZLE   41  34  75 N3        29.69F
FRONT ROYAL*   CLOUDY    50  36  57 MISG      29.67F
LURAY*         MOSUNNY   59  32  36 SW14G28   29.68F
NEW MARKET*    PTSUNNY   56  32  39 SW9       29.67F
STAUNTON*      SUNNY     58  34  40 SW10      29.71F
WAYNESBORO*    SUNNY     58  34  40 S6        29.72F

$$

WVZ021-048>050-054>055-181800-
EASTERN WEST VIRGINIA PANHANDLE

CITY           SKY/WX    TMP DP  RH WIND       PRES   REMARKS
MARTINSBURG    LGT RAIN  39  36  89 N5        29.71F FOG
PETERSBURG*    MOSUNNY   44  31  60 N5        29.67F

$$

VAZ036>039-050-181800-
CENTRAL FOOTHILLS

CITY           SKY/WX    TMP DP  RH WIND       PRES   REMARKS
CHARLOTTESVILL SUNNY     55  37  50 S17       29.75F
CULPEPER*      MOSUNNY   56  36  47 S13G24    29.74F
ORANGE*        MOSUNNY   54  37  54 SW12G25   29.76F
GORDONSVILLE*  MOSUNNY   56  39  53 SW8G16    29.75F
WARRENTON*     NOT AVBL

$$

VAZ055>057-181800-
NORTH AND CENTRAL PIEDMONT

CITY           SKY/WX    TMP DP  RH WIND       PRES   REMARKS
FREDERICKSBRG* PTSUNNY   57  39  51 S13G22    29.77F
STAFFORD*      MOSUNNY   56  37  48 S14G25    29.80F

$$

NCZ024-NYZ072-PAZ021-071-VAZ022-071-181800-
OTHER REGIONAL OBSERVATIONS

CITY           SKY/WX    TMP DP  RH WIND       PRES   REMARKS
NEW YORK CITY  CLOUDY    48  31  51 VRB6      29.84F
PHILADELPHIA   CLOUDY    50  36  58 S10       29.82F
PITTSBURGH     LGT RAIN  45  44  97 S9        29.54F
ROANOKE        CLOUDY    57  38  48 N5        29.77F
RICHMOND       CLOUDY    55  39  54 S14       29.82F
RALEIGH        PTSUNNY   62  41  46 SW20G28   29.91F

$$

ANZ530>537-181800-
MARINE OBSERVATIONS

STATION/POSITION TIME  TEMP    WIND        PRES
                       AIR SEA DIR/SP/G
                 (UTC) (F)     (DEG/KT/KT) (MB)
THOMAS PT LIGHT  1700   52 53  180/ 21/ 22   N/A

$$





USA.gov is the U.S. government's official web portal to all federal, state and local government web resources and services.